Rbgn^[z[y[W
メイン
   新天体発見情報
     Comet P/2023 B3 (PANSTARRS)
投稿するにはまず登録を

スレッド表示 | 古いものから 前のトピック | 次のトピック | 下へ
投稿者 スレッド
佐藤裕久
投稿日時: 2023-2-26 21:42
モデレータ
登録日: 2005-6-12
居住地: 日本
投稿: 2661
オンライン
Comet P/2023 B3 (PANSTARRS)

R. Weryk (西オンタリオ大学,物理および天文学科)の通報によると、1月23日UT、
HaleakalaにあるPan-STARRS2の1.8-m Ritchey-Chretien 反射望遠鏡で得た画像から
彗星を発見した。
Werykは、1月24.57日UT、Maunakeaにある3.6-m Canada-France-Hawaii望遠鏡で得た
3枚の60秒gri-バンドフォローアップ画像から、0".8のシーイングで、1".2(半値全
幅:FWHM)の非常集光した頭部と、p.a. 260-320°にわたって6" の広い尾が見えると
追記した。
小惑星センターのPCCP webpageに公表後、佐藤英貴氏(東京都文京区、1月26.6日UT, 
120-秒露出12枚のスタック, 0.51-m f/6.8 アストログラフ, Siding Spring, NSW, 
オーストラリア, 遠隔操作: 強く集光した8"のコマが見えるが尾はない。4".9の円形
範囲で測定した光度は20.0等であった)らCCD位置観測者によって彗星状と観測された。

彗星機能の報告は次のとおり、

OC   Date        Reporter           Coma    Tail    PA          Exposures
Q62  2023-01-26  H. Sato            8"                           12x120s
246  2023-02-14  M. Tichy           3"       12"    180 

発見位置は次のとおり、

     2023 UT             R.A. (2000) Decl.       Mag.
     Jan. 23.42579    9 27 26.85   +11 22 26.0   21.1
          23.43791    9 27 26.47   +11 22 28.5   21.3
          23.45009    9 27 26.07   +11 22 31.0   20.9
          23.46233    9 27 25.66   +11 22 33.5   21.0

MPCの楕円軌道要素、位置推算表は次のとおり、

Orbital elements:
    P/2023 B3 (PANSTARRS)                                                       
Epoch 2023 Feb. 25.0 TT = JDT 2460000.5                                         
T 2020 Aug. 28.72575 TT                                 Rudenko                 
q   3.9576714            (2000.0)            P               Q                  
n   0.10184932     Peri.  238.71207     +0.83717417     -0.54239824             
a   4.5411304      Node   153.93467     +0.54026138     +0.80007251             
e   0.1284832      Incl.    9.20784     +0.08518836     +0.25629694             
P   9.68                                                                        
From 63 observations 2023 Jan. 23-Feb. 15, mean residual 0".4.                  
                                                                                
Ephemeris:
Date    TT    R. A. (2000) Decl.     Delta      r    Elong.  Phase   m1
2023 01 18    09 30 10.2 +11 04 30   3.6890  4.6037   155.7     5.0  20.0
...
2023 02 02    09 22 13.1 +11 57 11   3.6400  4.6189   172.6     1.6  20.0
...
2023 02 10    09 17 40.3 +12 27 56   3.6424  4.6270   175.9     0.9  20.0
...
2023 02 16    09 14 18.2 +12 51 11   3.6573  4.6330   169.9     2.1  20.0
2023 02 17    09 13 45.3 +12 55 02   3.6609  4.6340   168.8     2.4  20.0
2023 02 18    09 13 12.5 +12 58 52   3.6648  4.6350   167.7     2.6  20.0
...
2023 02 24    09 10 03.5 +13 21 29   3.6946  4.6410   160.9     4.0  20.0
...
2023 03 04    09 06 17.7 +13 49 53   3.7506  4.6490   152.0     5.8  20.0
...
2023 03 19    09 01 06.3 +14 35 06   3.9001  4.6639   135.6     8.6  20.1

(MPEC 2023-D10、CBET 5222)

スレッド表示 | 古いものから 前のトピック | 次のトピック | トップ

投稿するにはまず登録を
 
© 1999 Tsutomu Seki.